When you browse on this site, cookies collect data to enhance your experience and personalize the content and advertising you see.
Visit our Privacy Policy to learn more. By continuing to use the site, you agree to this use of cookies and data.
  • en Suisse
  • Liste des pays
  • À 7 jours
  • Température de l'eau
  • Carte satellitaire
  • Carte météo
  • Widgets météo
  • user-avatar
    Se connecter

    Météo par heure à Kostrzewy

    Ce jour, 18 Février, Lundi

    Heure Température Précipitation Vent Pression Humidité
    00:00 +5°C° 0 mm 1 m/s 753 mmHg 74%
    01:00 +4°C° 0 mm 2 m/s 753 mmHg 75%
    02:00 +4°C° 0 mm 2 m/s 753 mmHg 77%
    03:00 +3°C° 0 mm 2 m/s 753 mmHg 78%
    04:00 +3°C° 0 mm 2 m/s 752 mmHg 80%
    05:00 +3°C° 0 mm 2 m/s 752 mmHg 80%
    06:00 +2°C° 0 mm 2 m/s 752 mmHg 80%
    07:00 +2°C° 0 mm 2 m/s 752 mmHg 80%
    08:00 +3°C° 0 mm 2 m/s 752 mmHg 74%
    09:00 +5°C° 0 mm 2 m/s 752 mmHg 69%
    10:00 +6°C° 0 mm 2 m/s 752 mmHg 63%
    11:00 +7°C° 0 mm 2 m/s 752 mmHg 57%
    12:00 +9°C° 0 mm 2 m/s 751 mmHg 52%
    13:00 +11°C° 0 mm 1 m/s 751 mmHg 46%
    14:00 +11°C° 0 mm 1 m/s 751 mmHg 48%
    15:00 +11°C° 0 mm 1 m/s 751 mmHg 50%
    16:00 +11°C° 0 mm 1 m/s 750 mmHg 52%
    17:00 +9°C° 0 mm 2 m/s 750 mmHg 55%
    18:00 +8°C° 0 mm 2 m/s 750 mmHg 58%
    19:00 +6°C° 0 mm 2 m/s 750 mmHg 62%
    20:00 +6°C° 0 mm 2 m/s 750 mmHg 66%
    21:00 +6°C° 0 mm 2 m/s 750 mmHg 70%
    22:00 +4°C° 0 mm 3 m/s 749 mmHg 74%
    23:00 +4°C° 0 mm 3 m/s 749 mmHg 75%

    Demain, 19 Février, Mardi

    Heure Température Précipitation Vent Pression Humidité
    00:00 +3°C° 0 mm 3 m/s 749 mmHg 77%
    01:00 +3°C° 0 mm 3 m/s 749 mmHg 78%
    02:00 +2°C° 0 mm 3 m/s 749 mmHg 79%
    03:00 +2°C° 0 mm 3 m/s 748 mmHg 79%
    04:00 +1°C° 0 mm 3 m/s 748 mmHg 79%
    05:00 +1°C° 0 mm 3 m/s 748 mmHg 80%
    06:00 +1°C° 0 mm 3 m/s 748 mmHg 82%
    07:00 0°C° 0 mm 4 m/s 747 mmHg 83%
    08:00 +1°C° 0 mm 4 m/s 747 mmHg 77%
    09:00 +4°C° 0 mm 4 m/s 747 mmHg 71%
    10:00 +5°C° 0 mm 4 m/s 747 mmHg 66%
    11:00 +6°C° 0 mm 4 m/s 747 mmHg 62%
    12:00 +8°C° 0 mm 4 m/s 747 mmHg 58%
    13:00 +10°C° 0 mm 4 m/s 746 mmHg 54%
    14:00 +10°C° 0 mm 4 m/s 746 mmHg 54%
    15:00 +10°C° 0 mm 4 m/s 746 mmHg 55%
    16:00 +10°C° 0 mm 4 m/s 746 mmHg 55%
    17:00 +8°C° 0 mm 4 m/s 746 mmHg 60%
    18:00 +7°C° 0 mm 4 m/s 746 mmHg 66%
    19:00 +6°C° 0 mm 4 m/s 746 mmHg 71%
    20:00 +6°C° 0.3 mm 4 m/s 747 mmHg 77%
    21:00 +6°C° 0.3 mm 4 m/s 747 mmHg 83%
    22:00 +5°C° 0.3 mm 4 m/s 747 mmHg 88%
    23:00 +5°C° 0.1 mm 4 m/s 747 mmHg 89%

    Après-demain, 20 Février, Mercredi

    Heure Température Précipitation Vent Pression Humidité
    00:00 +4°C° 0.1 mm 4 m/s 748 mmHg 90%
    01:00 +3°C° 0.1 mm 4 m/s 748 mmHg 91%
    02:00 +3°C° 0 mm 4 m/s 748 mmHg 91%
    03:00 +2°C° 0 mm 5 m/s 748 mmHg 91%
    04:00 +2°C° 0 mm 5 m/s 748 mmHg 91%
    05:00 +2°C° 0 mm 5 m/s 749 mmHg 90%
    06:00 +2°C° 0 mm 5 m/s 749 mmHg 90%
    07:00 +2°C° 0 mm 5 m/s 749 mmHg 89%
    08:00 +2°C° 0 mm 5 m/s 750 mmHg 86%
    09:00 +3°C° 0 mm 5 m/s 750 mmHg 83%
    10:00 +4°C° 0 mm 6 m/s 750 mmHg 80%
    11:00 +4°C° 0 mm 6 m/s 750 mmHg 77%
    12:00 +4°C° 0 mm 6 m/s 750 mmHg 73%
    13:00 +4°C° 0 mm 6 m/s 750 mmHg 70%
    14:00 +6°C° 0 mm 5 m/s 750 mmHg 69%
    15:00 +6°C° 0 mm 5 m/s 750 mmHg 68%
    16:00 +6°C° 0 mm 5 m/s 750 mmHg 67%
    17:00 +5°C° 0 mm 4 m/s 751 mmHg 71%
    18:00 +5°C° 0 mm 4 m/s 751 mmHg 75%
    19:00 +4°C° 0 mm 3 m/s 751 mmHg 78%
    20:00 +4°C° 0 mm 3 m/s 752 mmHg 81%
    21:00 +4°C° 0 mm 3 m/s 752 mmHg 83%
    22:00 +4°C° 0 mm 3 m/s 752 mmHg 85%
    23:00 +3°C° 0 mm 3 m/s 752 mmHg 86%

    21 Février, Jeudi

    Heure Température Précipitation Vent Pression Humidité
    00:00 +3°C° 0 mm 3 m/s 752 mmHg 87%
    01:00 +3°C° 0 mm 4 m/s 752 mmHg 88%
    02:00 +3°C° 0 mm 4 m/s 752 mmHg 88%
    03:00 +3°C° 0 mm 4 m/s 752 mmHg 87%
    04:00 +3°C° 0 mm 4 m/s 752 mmHg 86%
    05:00 +3°C° 0.2 mm 4 m/s 752 mmHg 87%
    06:00 +3°C° 0.2 mm 4 m/s 752 mmHg 87%
    07:00 +3°C° 0.2 mm 4 m/s 752 mmHg 88%
    08:00 +3°C° 0.2 mm 4 m/s 752 mmHg 87%
    09:00 +3°C° 0.2 mm 5 m/s 752 mmHg 86%
    10:00 +3°C° 0.2 mm 5 m/s 752 mmHg 85%
    11:00 +5°C° 0.1 mm 5 m/s 752 mmHg 84%
    12:00 +5°C° 0.1 mm 5 m/s 752 mmHg 82%
    13:00 +6°C° 0.1 mm 4 m/s 752 mmHg 81%
    14:00 +6°C° 0.4 mm 4 m/s 752 mmHg 84%
    15:00 +5°C° 0.4 mm 4 m/s 752 mmHg 88%
    16:00 +5°C° 0.4 mm 4 m/s 752 mmHg 92%
    17:00 +5°C° 0.3 mm 3 m/s 752 mmHg 93%
    18:00 +5°C° 0.3 mm 3 m/s 753 mmHg 94%
    19:00 +5°C° 0.3 mm 3 m/s 753 mmHg 95%
    20:00 +5°C° 0 mm 3 m/s 753 mmHg 96%
    21:00 +6°C° 0 mm 2 m/s 754 mmHg 97%
    22:00 +6°C° 0 mm 2 m/s 754 mmHg 97%
    23:00 +6°C° 0 mm 2 m/s 754 mmHg 97%

    22 Février, Vendredi

    Heure Température Précipitation Vent Pression Humidité
    00:00 +6°C° 0 mm 2 m/s 755 mmHg 97%
    01:00 +6°C° 0 mm 2 m/s 755 mmHg 97%
    02:00 +6°C° 0.1 mm 2 m/s 756 mmHg 97%
    03:00 +5°C° 0.1 mm 2 m/s 756 mmHg 97%
    04:00 +5°C° 0.1 mm 2 m/s 757 mmHg 97%
    05:00 +5°C° 0.1 mm 2 m/s 757 mmHg 97%
    06:00 +4°C° 0.1 mm 3 m/s 758 mmHg 97%
    07:00 +4°C° 0.1 mm 3 m/s 758 mmHg 97%
    08:00 +4°C° 0 mm 3 m/s 759 mmHg 95%
    09:00 +4°C° 0 mm 3 m/s 760 mmHg 93%
    10:00 +4°C° 0 mm 3 m/s 760 mmHg 90%
    11:00 +4°C° 0 mm 3 m/s 761 mmHg 88%
    12:00 +5°C° 0 mm 3 m/s 761 mmHg 85%
    13:00 +6°C° 0 mm 2 m/s 761 mmHg 82%
    14:00 +5°C° 0 mm 3 m/s 762 mmHg 78%
    15:00 +5°C° 0 mm 3 m/s 762 mmHg 74%
    16:00 +5°C° 0 mm 3 m/s 762 mmHg 70%
    17:00 +4°C° 0 mm 3 m/s 763 mmHg 67%
    18:00 +4°C° 0 mm 2 m/s 763 mmHg 65%
    19:00 +3°C° 0 mm 2 m/s 764 mmHg 63%
    20:00 +3°C° 0 mm 2 m/s 764 mmHg 60%
    21:00 +2°C° 0 mm 2 m/s 764 mmHg 57%
    22:00 +2°C° 0 mm 2 m/s 765 mmHg 55%
    23:00 +1°C° 0 mm 2 m/s 765 mmHg 55%

    23 Février, Samedi

    Heure Température Précipitation Vent Pression Humidité
    00:00 +2°C° 0 mm 1 m/s 765 mmHg 56%
    01:00 +2°C° 0 mm 1 m/s 766 mmHg 57%
    02:00 +2°C° 0 mm 1 m/s 765 mmHg 57%
    03:00 +2°C° 0 mm 1 m/s 765 mmHg 56%
    04:00 +1°C° 0 mm 1 m/s 765 mmHg 56%
    05:00 +2°C° 0 mm 1 m/s 765 mmHg 54%
    06:00 +2°C° 0 mm 1 m/s 765 mmHg 53%
    07:00 +2°C° 0 mm 1 m/s 766 mmHg 52%
    08:00 +3°C° 0 mm 1 m/s 766 mmHg 49%
    09:00 +4°C° 0 mm 1 m/s 766 mmHg 46%
    10:00 +4°C° 0 mm 2 m/s 766 mmHg 43%
    11:00 +5°C° 0 mm 2 m/s 765 mmHg 46%
    12:00 +6°C° 0 mm 2 m/s 765 mmHg 48%
    13:00 +7°C° 0 mm 2 m/s 765 mmHg 51%
    14:00 +7°C° 0 mm 2 m/s 764 mmHg 55%
    15:00 +7°C° 0 mm 2 m/s 764 mmHg 60%
    16:00 +8°C° 0 mm 2 m/s 764 mmHg 65%
    17:00 +7°C° 0 mm 2 m/s 764 mmHg 70%
    18:00 +6°C° 0 mm 2 m/s 763 mmHg 76%
    19:00 +5°C° 0 mm 2 m/s 763 mmHg 82%
    20:00 +5°C° 0 mm 2 m/s 763 mmHg 84%
    21:00 +4°C° 0 mm 2 m/s 763 mmHg 85%
    22:00 +3°C° 0 mm 3 m/s 763 mmHg 87%
    23:00 +3°C° 0 mm 3 m/s 763 mmHg 88%
    Voir plus